Simultaneous Nadir Overpasses (SNOs) Predictions

Prediction of SNOs between AQUA and METOP-A Satellite Orbit:

Table of predicted SNOs for the next 14.0 days since TLE Epoch: 10/9/2021
Index Date (AQUA) Time (AQUA) Lat,Lon (AQUA) SZA (AQUA ) Date (METOP-A) Time (METOP-A) Lat,Lon (METOP-A) SZA (METOP-A ) Distance(km) Time Diff (sec)
1 10/09/2021 23:59:00 77.80, 162.50 84.77 10/09/2021 23:57:56 77.80, 162.54 84.78 0.91 64
2 10/10/2021 00:48:27 -77.84, -30.02 95.18 10/10/2021 00:48:37 -77.83, -30.02 95.19 1.34 10
3 10/10/2021 01:38:02 78.20, 135.97 85.27 10/10/2021 01:39:08 78.20, 139.14 85.10 72.16 66
4 10/12/2021 19:33:15 77.81,-131.11 85.83 10/12/2021 19:32:16 77.80,-131.16 85.83 2.39 59
5 10/12/2021 20:22:42 -77.85, 36.37 94.12 10/12/2021 20:22:56 -77.86, 36.48 94.11 3.02 14
6 10/15/2021 15:07:30 77.84, -64.77 86.89 10/15/2021 15:06:35 77.83, -64.67 86.89 2.63 55
7 10/15/2021 15:56:57 -77.87, 102.71 93.06 10/15/2021 15:57:16 -77.85, 102.78 93.08 2.80 19
8 10/18/2021 10:41:43 77.83, 1.72 87.90 10/18/2021 10:40:54 77.81, 1.61 87.91 3.15 49
9 10/18/2021 11:31:10 -77.86, 169.21 92.05 10/18/2021 11:31:34 -77.88, 169.26 92.04 2.57 24
10 10/21/2021 06:15:57 77.83, 68.17 88.90 10/21/2021 06:15:13 77.84, 68.07 88.93 2.70 44
11 10/21/2021 07:05:24 -77.86,-124.34 91.05 10/21/2021 07:05:54 -77.87,-124.47 91.04 3.01 30



Historial Predications of SNOs between AQUA and METOP-A
